Weather History for KVCB - October, 2013

Change the Weather History Date:

Wednesday, October 9, 2013

  Actual Average Record
Temperature  
Mean Temperature 60 °F -  
Max Temperature 75 °F 82 °F 98 °F (1958)
Min Temperature 46 °F 50 °F 39 °F (1968)
Degree Days  
Heating Degree Days 4    
Growing Degree Days 10 (Base 50)    
Moisture  
Dew Point 36 °F    
Average Humidity 42    
Maximum Humidity 77    
Minimum Humidity 22    
Precipitation  
Precipitation 0.00 in - - ()
Sea Level Pressure  
Sea Level Pressure 29.66 in    
Wind  
Wind Speed 5 mph (NW)    
Max Wind Speed 15 mph    
Max Gust Speed 26 mph    
Visibility 10 miles    
Events      
Averages and records for this station are not official NWS values.
T = Trace of Precipitation, MM = Missing Value Source: NWS Daily Summary

Daily Weather History Graph

Daily Weather History Graph

Search for Another Location

Airport or City:

Trip Planner

Search our weather history database for the weather conditions in past years. The results will help you decide how hot, cold, wet, or windy it might be!

Date:

Astronomy

Oct. 09, 2013 Rise Set
Actual Time 7:11 AM PDT 6:38 PM PDT
Civil Twilight 6:44 AM PDT 7:04 PM PDT
Nautical Twilight 6:14 AM PDT 7:35 PM PDT
Astronomical Twilight 5:43 AM PDT 8:05 PM PDT
Moon 12:08 PM PDT (10/9) 10:21 PM PDT (10/9)
Length of Visible Light 12h 19m
Length of Day
11h 26m
Waxing Crescent, 26% of the Moon is Illuminated
Oct 9
Waxing Crescent
Oct 11
First Quarter
Oct 18
Full
Oct 26
Last Quarter
Nov 3
New

Hourly Weather History & Observations

Time (PDT) Temp. Dew Point Humidity Pressure Visibility Wind Dir Wind Speed Gust Speed Precip Events Conditions
12:53 AM 55.0 °F 39.0 °F 55% 29.66 in 10.0 mi Calm Calm - N/A   Clear
1:53 AM 54.0 °F 39.9 °F 59% 29.66 in 10.0 mi WSW 4.6 mph - N/A   Clear
2:53 AM 48.9 °F 39.0 °F 69% 29.65 in 10.0 mi Calm Calm - N/A   Clear
3:53 AM 54.0 °F 42.1 °F 64% 29.63 in 10.0 mi SW 3.5 mph - N/A   Clear
4:53 AM 53.1 °F 41.0 °F 64% 29.62 in 10.0 mi Calm Calm - N/A   Partly Cloudy
5:53 AM 51.1 °F 42.1 °F 71% 29.62 in 10.0 mi SW 5.8 mph - N/A   Clear
6:53 AM 46.9 °F 39.9 °F 77% 29.61 in 10.0 mi SW 4.6 mph - N/A   Clear
7:53 AM 51.1 °F 41.0 °F 68% 29.62 in 10.0 mi Calm Calm - N/A   Clear
8:53 AM 57.9 °F 42.1 °F 56% 29.63 in 10.0 mi South 3.5 mph - N/A   Clear
9:53 AM 66.0 °F 35.1 °F 32% 29.63 in 10.0 mi North 11.5 mph 26.5 mph N/A   Clear
10:53 AM 66.9 °F 35.1 °F 31% 29.64 in 10.0 mi North 15.0 mph 24.2 mph N/A   Clear
11:53 AM 68.0 °F 35.1 °F 30% 29.65 in 10.0 mi North 15.0 mph 24.2 mph N/A   Scattered Clouds
12:53 PM 72.0 °F 36.0 °F 27% 29.64 in 10.0 mi North 8.1 mph 17.3 mph N/A   Partly Cloudy
1:53 PM 73.9 °F 35.1 °F 24% 29.64 in 10.0 mi NNE 9.2 mph 16.1 mph N/A   Clear
2:53 PM 75.0 °F 34.0 °F 22% 29.65 in 10.0 mi NNW 8.1 mph - N/A   Clear
3:53 PM 75.0 °F 34.0 °F 22% 29.65 in 10.0 mi Variable 5.8 mph - N/A   Clear
4:53 PM 73.9 °F 33.1 °F 22% 29.65 in 10.0 mi North 5.8 mph 17.3 mph N/A   Clear
5:53 PM 72.0 °F 32.0 °F 23% 29.67 in 10.0 mi North 4.6 mph - N/A   Clear
6:53 PM 68.0 °F 32.0 °F 26% 29.68 in 10.0 mi NNW 5.8 mph - N/A   Clear
7:53 PM 62.1 °F 33.1 °F 34% 29.70 in 10.0 mi West 4.6 mph - N/A   Clear
8:53 PM 66.0 °F 32.0 °F 28% 29.72 in 10.0 mi NW 10.4 mph - N/A   Clear
9:53 PM 66.0 °F 33.1 °F 29% 29.73 in 10.0 mi NNW 11.5 mph - N/A   Clear
10:53 PM 64.9 °F 33.1 °F 31% 29.74 in 10.0 mi NNW 12.7 mph - N/A   Clear
11:53 PM 63.0 °F 33.1 °F 33% 29.75 in 10.0 mi NNW 9.2 mph - N/A   Clear